Regional Weather Roundup
Issued by NWS

Home | Current Version | Previous Version | Text Only | Print | Product List | Glossary On
Versions: 1 2 3 4 5 6 7 8 9 10 11 12 13 14 15 16 17 18 19 20 21 22 23 24 25 26 27 28 29 30 31 32 33 34 35 36 37 38 39 40 41 42 43 44 45 46 47 48 49 50
000
ASUS44 KFWD 211303
RWRTX
NORTH TEXAS HOURLY WEATHER ROUNDUP
NATIONAL WEATHER SERVICE FORT WORTH TX
800 AM CDT TUE OCT 21 2014

NOTE: "FAIR" INDICATES FEW OR NO CLOUDS BELOW 12,000 FEET WITH NO
SIGNIFICANT WEATHER AND/OR OBSTRUCTIONS TO VISIBILITY.

TXZ118-119-211400-
DALLAS/FORT WORTH METROPLEX

CITY           SKY/WX    TMP DP  RH WIND       PRES   REMARKS
DFW AIRPORT    PTCLDY    60  56  86 CALM      30.08R
DALLAS LOVE    PTCLDY    61  56  83 CALM      30.09R
FTW MEACHAM    CLEAR     60  57  89 CALM      30.08R FOG
DAL-EXECUTIVE  CLEAR     57  54  89 CALM      30.08R
FTW-ALLIANCE   PTCLDY    53  53 100 CALM      30.08R
FTW-NAS-JRB    PTCLDY    61  55  81 CALM      30.13R
FTW-SPINKS     CLEAR     54  52  94 CALM      30.10R
ARLINGTON      CLEAR     54  51  90 CALM      30.09R FOG
GRAND PRAIRIE  CLEAR     61  59  94 MISG      30.10R
ADDISON        PTCLDY    63  57  82 CALM      30.09R
MESQUITE       CLEAR     54  54 100 CALM      30.09R
LANCASTER      CLEAR     52  49  90 CALM      30.10R
$$

TXZ091>094-102>105-117-120-121-131>134-211400-
NORTH CENTRAL TEXAS

CITY           SKY/WX    TMP DP  RH WIND       PRES   REMARKS
SHRMAN/DENISON CLEAR     59  58  95 CALM      30.10R
GAINESVILLE      N/A     56  56  97 MISG      30.11R FOG
BOWIE          CLEAR     55  55  97 CALM      30.09S FOG
BRIDGEPORT     CLEAR     54  54 100 CALM      30.11R FOG
DECATUR        CLEAR     64  58  81 SW5       30.10R
DENTON         CLEAR     54  54 100 CALM      30.09R FOG
MCKINNEY       CLEAR     56  54  93 CALM      30.08R FOG
GREENVILLE     CLEAR     54  52  94 CALM      30.09R FOG
ROCKWALL       CLEAR     58  56  93 CALM      30.08R
TERRELL        CLEAR     56  52  86 CALM      30.09R
WAXAHACHIE     CLEAR     54  54 100 CALM      30.10S
CLEBURNE       CLEAR     57  57 100 CALM      30.11R FOG
GRANBURY       CLEAR     56  53  91 CALM      30.11R FOG
$$

TXZ083>090-098>101-113>116-127>130-139>142-154-155-211400-
WESTERN NORTH TEXAS

CITY           SKY/WX    TMP DP  RH WIND       PRES   REMARKS
WICHITA FALLS  CLEAR     58  56  93 SE3       30.08R FOG
WF-KICKAPOO    CLEAR     58  56  94 CALM      30.09R
VERNON         CLEAR     59  54  82 S3        30.09R
ABILENE        CLEAR     60  54  80 CALM      30.10R
ABILENE-DYESS  CLEAR     54  50  89 E3        30.09R
MINERAL WELLS  CLEAR     57  55  93 CALM      30.08R FOG
STEPHENVILLE   CLEAR     56  53  89 CALM      30.12R
COMANCHE       CLEAR     58  58 100 CALM      30.10R
COLEMAN        CLEAR     54  53  98 CALM      30.10R
BRADY          CLEAR     57  55  94 CALM      30.09R
$$

TXZ143>147-156>162-174-175-211400-
CENTRAL TEXAS

CITY           SKY/WX    TMP DP  RH WIND       PRES   REMARKS
WACO           CLEAR     56  54  93 N3        30.09R FOG
WACO-TSTC      CLEAR     55  55 100 CALM      30.10R FOG
WACO-MCGREGOR  CLEAR     55  50  82 N3        30.10R
HILLSBORO      CLEAR     56  54  90 CALM      30.10R FOG
CORSICANA      FOG       55  54  96 W3        30.10R VSB 1/4
MEXIA          CLEAR     56  55  95 CALM      30.08R
HEARNE         CLEAR     54  53  97 CALM      30.08R
CAMERON          N/A     56  55  98 N3        30.08R FOG
TEMPLE           N/A     55  50  82 N3        30.08R VSB 1/2
KILLEEN        CLEAR     59  55  88 CALM      30.08R FOG
KILLEEN-SKYLRK CLEAR     55  50  82 CALM      30.07R
FORT HOOD      CLEAR     59  57  93 CALM      30.08R
GATESVILLE     CLEAR     55  54  94 CALM      30.11R FOG
HAMILTON       CLEAR     58  58 100 S3        30.10R FOG
LAMPASAS       CLEAR     55  55  97 CALM      30.08R FOG
$$

TXZ095>097-106>112-122>126-135>138-148>153-164>167-211400-
EAST TEXAS

CITY           SKY/WX    TMP DP  RH WIND       PRES   REMARKS
PARIS          CLEAR     57  50  77 NE5       30.10R
SULPHUR SPRNGS   N/A     56  55  96 CALM      30.11R FOG
MOUNT PLEASANT CLEAR     55  55 100 CALM      30.11R
MINEOLA        CLEAR     55  55 100 CALM      30.10R
TYLER          CLEAR     57  53  86 CALM      30.08R
LONGVIEW       CLEAR     55  53  93 CALM      30.08R
MARSHALL       CLEAR     56  54  93 CALM      30.11R
ATHENS         CLEAR     52  52 100 CALM      30.08R
JACKSONVILLE   CLEAR     60  53  77 CALM      30.10R
HENDERSON      CLEAR     53  53  99 CALM      30.10R
NACOGDOCHES    CLEAR     52  48  87 CALM      30.09R
LUFKIN         CLEAR     55  51  86 CALM      30.08R
$$

SUPPLEMENTAL OBSERVATIONS (CENTRAL)

CITY           SKY/WX    TMP DP  RH WIND       PRES   REMARKS
$$

SUPPLEMENTAL OBSERVATIONS (WEST)

CITY           SKY/WX    TMP DP  RH WIND       PRES   REMARKS
$$

SUPPLEMENTAL OBSERVATIONS (EAST)

CITY           SKY/WX    TMP DP  RH WIND       PRES   REMARKS
$$

SUPPLEMENTAL OBSERVATIONS ARE A COLLECTION OF AUTOMATED INSTRUMENTS
THAT ARE MAINTAINED BY A VARIETY OF FEDERAL AND STATE AGENCIES.
CERTAIN ELEMENTS...SUCH AS HUMIDITY VALUES AND SUSTAINED WIND
SPEEDS...MAY BE APPROXIMATED.




USA.gov is the U.S. government's official web portal to all federal, state and local government web resources and services.